[[{"header":{"parameterUnit":"m.s-1","parameterCategory":1,"la1":30.2992,"la2":30.254,"lo1":-89.0895,"lo2":-89.0443,"dy":0.0025,"dx":0.0025,"nx":19,"ny":19,"refTime":"2026-04-16T21:00:00:Z","depth":0,"parameterNumber":2,"parameterNumberName":"U-component_of_WINDS"},"data":[0,0,0,-1.1787,-1.1789,-1.189,-1.1891,-1.2028,-1.2029,0,0,0,0,0,0,0,0,0,0,0,-1.1759,-1.176,-1.1787,-1.179,-1.189,-1.1891,-1.2028,-1.2029,0,0,0,0,0,0,0,0,0,0,0,-1.1759,-1.176,-1.1761,-1.179,-1.189,-1.1891,-1.2027,-1.1949,0,0,0,0,0,0,0,0,0,0,-1.185,-1.1826,-1.176,-1.1761,-1.1791,-1.189,-1.1891,-1.1945,-1.1954,-1.1985,0,-1.201,0,-1.2022,-1.2039,-1.2039,0,0,0,-1.1789,-1.1818,-1.1843,-1.1761,-1.1791,-1.189,-1.1845,-1.195,-1.196,-1.1997,-1.2012,-1.2017,-1.2024,-1.204,-1.204,-1.2216,-1.2216,0,0,-1.1783,-1.1779,-1.1836,-1.185,-1.1831,-1.1841,-1.1848,-1.1956,-1.1974,-1.2013,-1.202,-1.2026,-1.204,-1.2042,-1.2215,-1.2216,0,0,0,-1.1768,-1.1775,-1.1798,-1.1844,-1.1862,-1.1844,-1.1852,-1.1969,-1.1976,-1.2022,-1.2028,-1.2041,-1.2043,-1.2214,-1.2215,-1.2252,0,0,0,-1.1764,-1.1766,-1.1795,-1.1794,-1.186,-1.1916,-1.1862,-1.1969,-1.1981,-1.2027,-1.2041,-1.2044,-1.2213,-1.2215,-1.2249,-1.2271,0,0,0,-1.1752,-1.1765,-1.178,-1.1794,-1.1836,-1.1914,-1.1928,-1.1972,-1.1985,-1.2039,-1.2045,-1.2212,-1.2214,-1.2247,-1.2266,-1.2316,0,0,0,-1.1739,-1.1812,-1.178,-1.1866,-1.1835,-1.1936,-1.1927,-1.2003,-1.2054,-1.2042,-1.2213,-1.2215,-1.2246,-1.2264,-1.2313,-1.2356,-1.2373,0,0,-1.183,-1.1823,-1.1874,-1.1848,-1.1953,-1.1921,-1.2033,-1.2084,-1.2094,-1.2175,-1.218,-1.225,-1.2266,-1.2315,-1.2474,-1.2488,0,0,0,-1.1901,-1.1938,-1.1966,-1.2013,-1.2053,-1.209,-1.2125,-1.2144,-1.2213,-1.2134,-1.2282,-1.2291,-1.232,-1.2341,-1.2353,-1.2378,-1.2225,-1.2224,-1.2224,-1.2024,-1.2032,-1.2117,-1.2137,-1.2183,-1.2218,-1.2258,-1.229,-1.2286,-1.2321,-1.2345,-1.244,-1.2464,-1.2473,-1.2499,-1.2369,-1.2369,-1.2369,-1.2369,-1.2158,-1.2211,-1.2203,-1.2281,-1.2291,-1.2358,-1.2397,-1.2392,-1.2458,-1.2422,-1.2448,-1.2408,-1.2488,-1.2511,-1.2372,-1.2371,-1.2371,-1.2371,-1.2371,-1.2239,-1.2265,-1.2287,-1.2356,-1.241,-1.243,-1.2493,-1.25,-1.2507,-1.2533,-1.2559,-1.2559,-1.2559,-1.2545,-1.2545,-1.2546,-1.2546,-1.2546,-1.2546,-1.2313,-1.2336,-1.2387,-1.2437,-1.2469,-1.2512,-1.255,-1.2582,-1.2621,-1.2621,-1.2621,-1.2614,-1.2494,-1.2463,-1.2552,-1.2551,-1.255,-1.255,-1.2549,-1.2445,-1.2416,-1.2495,-1.2527,-1.2587,-1.264,-1.2648,-1.2715,-1.2743,-1.2775,-1.2763,-1.2673,-1.2667,-1.2658,-1.2633,-1.276,-1.276,-1.276,-1.276,-1.2512,-1.251,-1.2592,-1.2643,-1.2694,-1.271,-1.2802,-1.2834,-1.2862,-1.2881,-1.2864,-1.2832,-1.2822,-1.2822,-1.2809,-1.2786,-1.2949,-1.2949,-1.295,-1.2594,-1.2597,-1.2672,-1.2697,-1.2745,-1.2787,-1.2874,-1.2936,-1.2963,-1.2957,-1.2896,-1.2888,-1.2836,-1.2818,-1.281,-1.279,-1.2747,0,0]},{"header":{"parameterUnit":"m.s-1","parameterCategory":1,"la1":30.2992,"la2":30.254,"lo1":-89.0895,"lo2":-89.0443,"dy":0.0025,"dx":0.0025,"nx":19,"ny":19,"refTime":"2026-04-16T21:00:00:Z","depth":0,"parameterNumber":3,"parameterNumberName":"V-component_of_WINDS"},"data":[0,0,0,2.3423,2.3422,2.339,2.339,2.335,2.335,0,0,0,0,0,0,0,0,0,0,0,2.3435,2.3435,2.3423,2.3422,2.339,2.339,2.335,2.335,0,0,0,0,0,0,0,0,0,0,0,2.3435,2.3435,2.3435,2.3422,2.339,2.339,2.335,2.3373,0,0,0,0,0,0,0,0,0,0,2.3404,2.3418,2.3435,2.3435,2.3422,2.339,2.339,2.3375,2.3372,2.3365,0,2.3362,0,2.3355,2.3347,2.3347,0,0,0,2.342,2.342,2.341,2.3435,2.3422,2.3391,2.3404,2.3373,2.337,2.3362,2.3361,2.336,2.3355,2.3347,2.3347,2.3323,2.3323,0,0,2.3422,2.343,2.3412,2.3408,2.3415,2.3405,2.3403,2.3371,2.337,2.3361,2.3359,2.3354,2.3347,2.3346,2.3323,2.3323,0,0,0,2.3428,2.3431,2.3421,2.341,2.3404,2.3404,2.3402,2.3372,2.3368,2.3358,2.3354,2.3346,2.3346,2.3323,2.3323,2.3333,0,0,0,2.3429,2.3435,2.3422,2.3427,2.3405,2.3388,2.3403,2.337,2.3366,2.3354,2.3346,2.3346,2.3323,2.3323,2.3332,2.3335,0,0,0,2.3436,2.3436,2.3432,2.3427,2.3414,2.3388,2.3383,2.3369,2.3364,2.3347,2.3346,2.3323,2.3323,2.3332,2.3335,2.3332,0,0,0,2.3445,2.3439,2.3433,2.3424,2.3415,2.3395,2.3383,2.3367,2.3354,2.3346,2.3323,2.3323,2.3332,2.3334,2.3332,2.3331,2.3332,0,0,2.3442,2.3439,2.3434,2.3427,2.3411,2.3399,2.3384,2.3363,2.3353,2.3333,2.3332,2.3332,2.3335,2.3332,2.3333,2.3334,0,0,0,2.3436,2.3432,2.3426,2.3416,2.3401,2.3389,2.337,2.3363,2.3346,2.3345,2.3331,2.3331,2.3329,2.3329,2.3329,2.3327,2.3323,2.3323,2.3323,2.3442,2.3432,2.3423,2.3409,2.3399,2.3381,2.3371,2.3357,2.3347,2.3344,2.3338,2.334,2.334,2.334,2.3338,2.3337,2.3337,2.3337,2.3337,2.3437,2.3431,2.3421,2.3408,2.3397,2.3385,2.3368,2.3362,2.3348,2.3344,2.3341,2.3337,2.3341,2.3339,2.3338,2.3338,2.3338,2.3338,2.3337,2.344,2.3435,2.3428,2.3413,2.3403,2.3388,2.3377,2.3366,2.3355,2.3353,2.3346,2.3346,2.3344,2.3351,2.3351,2.3351,2.3351,2.3351,2.3351,2.3446,2.3438,2.3431,2.3417,2.341,2.3399,2.3381,2.3373,2.3361,2.3354,2.3354,2.3344,2.3344,2.3345,2.3351,2.3351,2.3351,2.3351,2.3351,2.3444,2.3444,2.3433,2.3426,2.3409,2.3399,2.3387,2.3371,2.3363,2.3358,2.3349,2.3352,2.3347,2.3346,2.3346,2.3352,2.3352,2.3352,2.3352,2.3447,2.3444,2.3432,2.3421,2.341,2.3398,2.3385,2.3372,2.3357,2.3351,2.3349,2.3348,2.3348,2.3343,2.3343,2.3342,2.3348,2.3348,2.3348,2.3445,2.3441,2.3433,2.3422,2.3408,2.3396,2.3384,2.3371,2.3354,2.3347,2.3346,2.3346,2.3345,2.3345,2.3337,2.3336,2.3336,0,0]}]]